Location: Cadenet
(43.7345°N, 5.3750°E)
Time: 07:42:11
(UTC+00:00)

PAYLOAD B - Pass Details

Date: 18 February 2020
Orbit: 848 x 872 km, 99.1° (Epoch: 31 March)

Event Time Altitude Azimuth Distance (km) Brightness Sun altitude
Rises 05:18:55 0° 14° (NNE) 3,463 7.5 -14.2°
Reaches altitude 10° 05:21:19 10° 14° (NNE) 2,519 6.8 -13.7°
Maximum altitude 05:26:56 87° 287° (WNW) 870 4.2 -12.7°
Drops below altitude 10° 05:32:28 10° 197° (SSW) 2,486 6.5 -11.7°
Sets 05:34:49 0° 198° (SSW) 3,415 7.2 -11.3°
